Location: Carnetin
(48.9010°N, 2.7059°E)
Time: 05:04:03
(UTC+00:00)

USA 229 - Pass Details

Date: 07 June 2022
Orbit: 938 x 1274 km, 63.4° (Epoch: 24 May)

Event Time Altitude Azimuth Distance (km) Brightness Sun altitude
Rises 22:41:37 0° 313° (NW) 4,005 7.7 -16.8°
Reaches altitude 10° 22:44:38 10° 303° (WNW) 3,091 6.8 -16.9°
Maximum altitude 22:50:47 29° 247° (WSW) 2,072 5.1 -17.1°
Enters shadow 22:55:13 17° 202° (SSW) 2,698 5.3 -17.3°
